When you browse on this site, cookies collect data to enhance your experience and personalize the content and advertising you see.
Visit our Privacy Policy to learn more. By continuing to use the site, you agree to this use of cookies and data.
  • In Lithuania
  • List of Countries
  • For 7 days
  • Water Temperature
  • Satellite Maps
  • Weather Map
  • Weather Widgets
  • user-avatar
    Login

    Hourly Weather Karnkow

    Today, 24 May, Friday

    Time Temperature Precipitation Wind Pressure Humidity
    00:00 +9°C° 0 mm 2 mps 745 mmHg 85%
    01:00 +8°C° 0 mm 2 mps 744 mmHg 83%
    02:00 +8°C° 0 mm 2 mps 744 mmHg 85%
    03:00 +7°C° 0 mm 2 mps 744 mmHg 86%
    04:00 +7°C° 0 mm 2 mps 744 mmHg 88%
    05:00 +8°C° 0 mm 2 mps 744 mmHg 84%
    06:00 +10°C° 0 mm 2 mps 744 mmHg 80%
    07:00 +13°C° 0 mm 2 mps 744 mmHg 76%
    08:00 +14°C° 0 mm 2 mps 744 mmHg 70%
    09:00 +15°C° 0 mm 2 mps 744 mmHg 65%
    10:00 +16°C° 0 mm 2 mps 744 mmHg 59%
    11:00 +17°C° 0 mm 2 mps 744 mmHg 57%
    12:00 +18°C° 0 mm 2 mps 743 mmHg 54%
    13:00 +19°C° 0 mm 2 mps 743 mmHg 52%
    14:00 +19°C° 0 mm 2 mps 743 mmHg 53%
    15:00 +19°C° 0 mm 2 mps 743 mmHg 53%
    16:00 +19°C° 0 mm 2 mps 742 mmHg 54%
    17:00 +19°C° 0 mm 1 mps 742 mmHg 59%
    18:00 +16°C° 0 mm 1 mps 742 mmHg 64%
    19:00 +14°C° 0 mm 0 mps 742 mmHg 69%
    20:00 +14°C° 0 mm 1 mps 742 mmHg 71%
    21:00 +13°C° 0 mm 1 mps 742 mmHg 72%
    22:00 +12°C° 0 mm 2 mps 742 mmHg 73%
    23:00 +10°C° 0 mm 2 mps 742 mmHg 73%

    Tomorrow, 25 May, Saturday

    Time Temperature Precipitation Wind Pressure Humidity
    00:00 +10°C° 0 mm 2 mps 742 mmHg 73%
    01:00 +10°C° 0 mm 2 mps 742 mmHg 73%
    02:00 +10°C° 0 mm 2 mps 742 mmHg 74%
    03:00 +10°C° 0 mm 2 mps 742 mmHg 74%
    04:00 +10°C° 0 mm 2 mps 742 mmHg 75%
    05:00 +13°C° 0 mm 2 mps 742 mmHg 74%
    06:00 +15°C° 0 mm 2 mps 742 mmHg 74%
    07:00 +16°C° 0 mm 2 mps 742 mmHg 74%
    08:00 +17°C° 0.1 mm 2 mps 742 mmHg 71%
    09:00 +19°C° 0.1 mm 2 mps 742 mmHg 69%
    10:00 +20°C° 0.1 mm 3 mps 742 mmHg 66%
    11:00 +20°C° 0.5 mm 3 mps 742 mmHg 68%
    12:00 +20°C° 0.5 mm 3 mps 742 mmHg 69%
    13:00 +20°C° 0.5 mm 3 mps 742 mmHg 71%
    14:00 +20°C° 0.5 mm 3 mps 742 mmHg 71%
    15:00 +20°C° 0.5 mm 3 mps 742 mmHg 71%
    16:00 +20°C° 0.5 mm 3 mps 742 mmHg 71%
    17:00 +19°C° 0.2 mm 2 mps 742 mmHg 74%
    18:00 +18°C° 0.2 mm 2 mps 742 mmHg 77%
    19:00 +18°C° 0.2 mm 1 mps 742 mmHg 81%
    20:00 +16°C° 0 mm 1 mps 742 mmHg 82%
    21:00 +15°C° 0 mm 2 mps 742 mmHg 83%
    22:00 +13°C° 0 mm 2 mps 743 mmHg 85%
    23:00 +13°C° 0 mm 2 mps 743 mmHg 86%

    Day after tomorrow, 26 May, Sunday

    Time Temperature Precipitation Wind Pressure Humidity
    00:00 +12°C° 0 mm 2 mps 743 mmHg 87%
    01:00 +12°C° 0 mm 2 mps 742 mmHg 88%
    02:00 +10°C° 0 mm 2 mps 742 mmHg 89%
    03:00 +11°C° 0 mm 1 mps 742 mmHg 89%
    04:00 +10°C° 0 mm 1 mps 742 mmHg 90%
    05:00 +12°C° 0 mm 1 mps 742 mmHg 86%
    06:00 +14°C° 0 mm 1 mps 743 mmHg 82%
    07:00 +15°C° 0 mm 1 mps 743 mmHg 78%
    08:00 +18°C° 0 mm 1 mps 743 mmHg 73%
    09:00 +19°C° 0 mm 1 mps 742 mmHg 69%
    10:00 +19°C° 0 mm 2 mps 742 mmHg 65%
    11:00 +20°C° 0 mm 2 mps 742 mmHg 62%
    12:00 +21°C° 0 mm 2 mps 742 mmHg 60%
    13:00 +22°C° 0 mm 3 mps 742 mmHg 58%
    14:00 +22°C° 0.1 mm 3 mps 741 mmHg 59%
    15:00 +22°C° 0.1 mm 3 mps 741 mmHg 60%
    16:00 +22°C° 0.1 mm 3 mps 741 mmHg 61%
    17:00 +21°C° 0.1 mm 2 mps 741 mmHg 67%
    18:00 +20°C° 0.1 mm 2 mps 741 mmHg 73%
    19:00 +19°C° 0.1 mm 1 mps 741 mmHg 79%
    20:00 +18°C° 0 mm 1 mps 741 mmHg 81%
    21:00 +16°C° 0 mm 1 mps 741 mmHg 83%
    22:00 +15°C° 0 mm 1 mps 742 mmHg 85%
    23:00 +14°C° 0 mm 1 mps 742 mmHg 87%

    27 May, Monday

    Time Temperature Precipitation Wind Pressure Humidity
    00:00 +14°C° 0 mm 2 mps 741 mmHg 88%
    01:00 +14°C° 0 mm 2 mps 741 mmHg 90%
    02:00 +13°C° 0 mm 2 mps 741 mmHg 90%
    03:00 +13°C° 0 mm 2 mps 741 mmHg 91%
    04:00 +13°C° 0 mm 2 mps 741 mmHg 91%
    05:00 +15°C° 0 mm 2 mps 741 mmHg 87%
    06:00 +16°C° 0 mm 2 mps 741 mmHg 83%
    07:00 +18°C° 0 mm 3 mps 741 mmHg 79%
    08:00 +20°C° 0 mm 3 mps 741 mmHg 73%
    09:00 +21°C° 0 mm 4 mps 741 mmHg 67%
    10:00 +23°C° 0 mm 4 mps 740 mmHg 61%
    11:00 +23°C° 0 mm 4 mps 740 mmHg 59%
    12:00 +25°C° 0 mm 4 mps 740 mmHg 57%
    13:00 +25°C° 0 mm 4 mps 740 mmHg 55%
    14:00 +25°C° 0 mm 4 mps 740 mmHg 56%
    15:00 +25°C° 0 mm 3 mps 739 mmHg 58%
    16:00 +25°C° 0 mm 3 mps 739 mmHg 60%
    17:00 +24°C° 0.1 mm 3 mps 739 mmHg 67%
    18:00 +21°C° 0.1 mm 2 mps 739 mmHg 74%
    19:00 +20°C° 0.1 mm 2 mps 739 mmHg 81%
    20:00 +18°C° 0 mm 2 mps 739 mmHg 85%
    21:00 +17°C° 0 mm 2 mps 739 mmHg 88%
    22:00 +16°C° 0 mm 2 mps 739 mmHg 92%
    23:00 +15°C° 0 mm 1 mps 739 mmHg 93%

    28 May, Tuesday

    Time Temperature Precipitation Wind Pressure Humidity
    00:00 +15°C° 0 mm 1 mps 739 mmHg 94%
    01:00 +15°C° 0 mm 1 mps 739 mmHg 96%
    02:00 +15°C° 0.1 mm 1 mps 738 mmHg 96%
    03:00 +14°C° 0.1 mm 1 mps 738 mmHg 97%
    04:00 +14°C° 0.1 mm 1 mps 737 mmHg 97%
    05:00 +15°C° 1.6 mm 2 mps 737 mmHg 97%
    06:00 +15°C° 1.6 mm 2 mps 737 mmHg 97%
    07:00 +15°C° 1.6 mm 2 mps 737 mmHg 97%
    08:00 +15°C° 2.2 mm 2 mps 736 mmHg 97%
    09:00 +15°C° 2.2 mm 2 mps 736 mmHg 97%
    10:00 +15°C° 2.2 mm 2 mps 736 mmHg 97%
    11:00 +16°C° 0.5 mm 3 mps 735 mmHg 96%
    12:00 +17°C° 0.5 mm 3 mps 735 mmHg 95%
    13:00 +17°C° 0.5 mm 3 mps 735 mmHg 93%
    14:00 +18°C° 0.2 mm 3 mps 734 mmHg 91%
    15:00 +19°C° 0.2 mm 2 mps 734 mmHg 89%
    16:00 +20°C° 0.2 mm 2 mps 734 mmHg 86%
    17:00 +19°C° 1.9 mm 2 mps 733 mmHg 88%
    18:00 +19°C° 1.9 mm 2 mps 733 mmHg 90%
    19:00 +18°C° 1.9 mm 2 mps 733 mmHg 91%
    20:00 +17°C° 1.6 mm 2 mps 733 mmHg 92%
    21:00 +17°C° 1.6 mm 2 mps 733 mmHg 94%
    22:00 +16°C° 1.6 mm 3 mps 733 mmHg 95%
    23:00 +14°C° 0.4 mm 3 mps 733 mmHg 95%

    29 May, Wednesday

    Time Temperature Precipitation Wind Pressure Humidity
    00:00 +14°C° 0.4 mm 4 mps 734 mmHg 95%
    01:00 +13°C° 0.4 mm 4 mps 734 mmHg 95%
    02:00 +13°C° 0 mm 4 mps 734 mmHg 95%
    03:00 +12°C° 0 mm 4 mps 734 mmHg 95%
    04:00 +12°C° 0 mm 4 mps 735 mmHg 95%
    05:00 +13°C° 0 mm 4 mps 735 mmHg 93%
    06:00 +13°C° 0 mm 4 mps 735 mmHg 91%
    07:00 +14°C° 0 mm 4 mps 736 mmHg 88%
    08:00 +15°C° 0 mm 4 mps 736 mmHg 86%
    09:00 +17°C° 0 mm 3 mps 737 mmHg 83%
    10:00 +17°C° 0 mm 3 mps 737 mmHg 80%
    11:00 +17°C° 0.3 mm 3 mps 738 mmHg 81%
    12:00 +18°C° 0.3 mm 3 mps 738 mmHg 82%
    13:00 +18°C° 0.3 mm 3 mps 738 mmHg 83%
    14:00 +17°C° 0.7 mm 3 mps 739 mmHg 87%
    15:00 +16°C° 0.7 mm 3 mps 739 mmHg 90%
    16:00 +14°C° 0.7 mm 3 mps 739 mmHg 94%
    17:00 +14°C° 0.1 mm 3 mps 740 mmHg 94%
    18:00 +14°C° 0.1 mm 3 mps 740 mmHg 94%
    19:00 +13°C° 0.1 mm 3 mps 740 mmHg 94%
    20:00 +13°C° 0.3 mm 3 mps 741 mmHg 95%
    21:00 +12°C° 0.3 mm 3 mps 742 mmHg 96%
    22:00 +12°C° 0.3 mm 3 mps 742 mmHg 97%
    23:00 +11°C° 0.9 mm 3 mps 742 mmHg 97%
    Show more